Regional Weather Roundup
Issued by NWS

Home | Current Version | Previous Version | Text Only | Print | Product List | Glossary On
Versions: 1 2 3 4 5 6 7 8 9 10 11 12 13 14 15 16 17 18 19 20 21 22 23 24 25 26 27 28 29 30 31 32 33 34 35 36 37 38 39 40 41 42 43 44 45 46 47 48 49 50
000
ASUS45 KREV 231610
RWRNV
NEVADA REGIONAL WEATHER ROUNDUP
NATIONAL WEATHER SERVICE RENO NV
900 AM PDT TUE SEP 23 2014

NOTE: "FAIR" INDICATES FEW OR NO CLOUDS BELOW 12,000 FEET WITH NO
SIGNIFICANT WEATHER AND/OR OBSTRUCTIONS TO VISIBILITY.

NVZ001-003-004-231700-
WESTERN NEVADA

CITY           SKY/WX    TMP DP  RH WIND       PRES   REMARKS
RENO           PTSUNNY   62  43  49 CALM      30.13S HAZE
CARSON CITY    FAIR      59  43  55 CALM      30.15S HAZE
MINDEN         FAIR      55  41  58 CALM      30.17S
SLIDE MTN        N/A     46  28  49 SW22        N/A
PYRAMID LAKE     N/A     72 N/A N/A NE2         N/A
FALLON         PTSUNNY   68  42  38 S6        30.09S
LOVELOCK       MOSUNNY   59  40  49 CALM      30.10R
HAWTHORNE      SUNNY     68  46  45 CALM      30.13R
$$

NVZ002-CAZ072-073-231700-
NORTHERN AND CENTRAL SIERRA

CITY           SKY/WX    TMP DP  RH WIND       PRES   REMARKS
S. LAKE TAHOE  SUNNY     53  37  54 NE3       30.22S
SQUAW VLY 8000 NOT AVBL
BLUE CANYON    SUNNY     63  45  51 SE10      30.20R
MAMMOTH LAKES  FAIR      54  39  58 SE7       30.31S
$$

NVZ030-031-036-231700-
NORTHERN NEVADA

CITY           SKY/WX    TMP DP  RH WIND       PRES   REMARKS
ELKO           MOSUNNY   59  44  57 E5        30.20R
WINNEMUCCA     PTSUNNY   64  40  41 CALM      30.12R
WENDOVER       MOSUNNY   63  54  72 E6        30.18R
$$

NVZ035-037-231700-
CENTRAL NEVADA

CITY           SKY/WX    TMP DP  RH WIND       PRES   REMARKS
ELY            SUNNY     63  47  55 SE6       30.29R
EUREKA           N/A     63  47  55 CALM      30.25
$$

NVZ013-014-231700-
SOUTH CENTRAL NEVADA

CITY           SKY/WX    TMP DP  RH WIND       PRES   REMARKS
TONOPAH        SUNNY     66  40  38 CALM      30.23R
$$

NVZ017-020-022-231700-
SOUTHERN NEVADA

CITY           SKY/WX    TMP DP  RH WIND       PRES   REMARKS
LAS VEGAS      SUNNY     80  43  26 SW5       30.02R
N. LAS VEGAS   SUNNY     80  42  25 CALM      30.04R
NELLIS AFB     SUNNY     78  48  34 CALM      30.03R
HENDERSON      NOT AVBL
MERCURY        SUNNY     73  40  30 CALM      30.10R
$$


USA.gov is the U.S. government's official web portal to all federal, state and local government web resources and services.